ON7EQ-13 Weather Reports


time (UTC)temp
C
wind
direction
speed
KPH
gust
KPH
rain 1hr
cm
rain 24hr
cm
rain mn
cm
humidity
%
barometer
mb
20260507060409 10 70 0.0 0.0 0.00 0.00 0.00 94 1014.3
20260507055409 10 70 0.0 0.0 0.00 0.00 0.00 94 1014.2
20260507054409 10 70 0.0 0.0 0.00 0.00 0.00 95 1014.2
20260507053409 10 70 0.0 0.0 0.00 0.00 0.00 96 1014.2
20260507052409 10 70 0.0 0.0 0.00 0.00 0.00 95 1014.0
20260507051409 9 70 0.0 0.0 0.00 0.00 0.00 95 1013.9
20260507050410 9 70 0.0 0.0 0.00 0.00 0.00 96 1013.7
20260507045409 9 70 0.0 0.0 0.00 0.00 0.00 95 1013.7
20260507044410 9 70 0.0 0.0 0.00 0.00 0.00 95 1013.5
20260507043410 9 70 0.0 0.0 0.00 0.00 0.00 95 1013.5
20260507042410 9 70 0.0 0.0 0.00 0.00 0.00 95 1013.4
20260507041409 9 70 0.0 0.0 0.00 0.00 0.00 95 1013.4
20260507040409 9 70 0.0 0.0 0.00 0.00 0.00 94 1013.2
20260507035409 9 70 0.0 0.0 0.00 0.00 0.00 94 1013.1
20260507034409 9 70 0.0 0.0 0.00 0.00 0.00 94 1013.1
20260507033409 9 70 0.0 0.0 0.00 0.00 0.00 93 1013.0
20260507032409 9 70 0.0 0.0 0.00 0.00 0.00 93 1012.9
20260507031409 10 70 0.0 0.0 0.00 0.00 0.00 93 1012.9
20260507030409 10 70 0.0 0.0 0.00 0.00 0.00 93 1012.9
20260507025409 10 70 0.0 0.0 0.00 0.00 0.00 93 1012.9
20260507024409 10 70 0.0 0.0 0.00 0.00 0.00 93 1012.8
20260507023410 10 70 0.0 0.0 0.00 0.00 0.00 93 1012.7
20260507022410 10 70 0.0 0.0 0.00 0.00 0.00 93 1012.6
20260507021409 10 70 0.0 0.0 0.00 0.00 0.00 93 1012.6
20260507020410 10 70 0.0 0.0 0.00 0.00 0.00 93 1012.5
20260507015410 10 70 0.0 0.0 0.00 0.00 0.00 93 1012.4
20260507014409 10 70 0.0 0.0 0.00 0.00 0.00 92 1012.3
20260507013409 10 70 0.0 0.0 0.00 0.00 0.00 92 1012.3
20260507012410 10 70 0.0 0.0 0.00 0.00 0.00 92 1012.4
20260507011409 10 70 0.0 0.0 0.00 0.00 0.00 92 1012.4
20260507010410 10 70 0.0 0.0 0.00 0.00 0.00 92 1012.3
20260507005409 10 70 0.0 0.0 0.00 0.00 0.00 91 1012.3
20260507004409 10 70 0.0 0.0 0.00 0.00 0.00 90 1012.4
20260507003409 10 70 0.0 0.0 0.00 0.00 0.00 91 1012.3
20260507002409 10 70 0.0 0.0 0.00 0.00 0.00 91 1012.2
20260507001409 10 70 0.0 0.0 0.00 0.00 0.00 90 1012.2
20260507000409 10 70 0.0 0.0 0.00 0.00 0.00 89 1012.2
20260506235409 10 70 0.0 0.0 0.00 0.00 0.00 89 1012.2
20260506234409 10 70 0.0 0.0 0.00 0.00 0.00 89 1012.2
20260506233410 10 70 0.0 0.0 0.00 0.00 0.00 88 1012.1
20260506232410 10 70 0.0 0.0 0.00 0.00 0.00 87 1012.1
20260506231409 10 70 0.0 0.0 0.00 0.00 0.00 88 1012.0
20260506230409 10 70 0.0 0.0 0.00 0.00 0.00 87 1012.0
20260506225409 10 70 0.0 0.0 0.00 0.00 0.00 85 1011.9
20260506224409 10 70 0.0 0.0 0.00 0.00 0.00 83 1011.8
20260506223409 10 70 0.0 0.0 0.00 0.00 0.00 83 1011.8
20260506222409 10 70 0.0 0.0 0.00 0.00 0.00 83 1011.7
20260506221409 10 70 0.0 0.0 0.00 0.00 0.00 83 1011.7
20260506220409 10 70 0.0 0.0 0.00 0.00 0.00 82 1011.7
20260506215410 10 70 0.0 0.0 0.00 0.00 0.00 81 1011.7
20260506214410 11 70 0.0 0.0 0.00 0.00 0.00 81 1011.6
20260506213409 11 70 0.0 0.0 0.00 0.00 0.00 79 1011.6
20260506212410 11 70 0.0 0.0 0.00 0.00 0.00 77 1011.5
20260506211409 11 70 0.0 0.0 0.00 0.00 0.00 76 1011.4
20260506210409 11 70 0.0 1.6 0.00 0.00 0.00 77 1011.4
20260506205409 11 75 0.0 3.2 0.00 0.00 0.00 76 1011.3
20260506204409 11 70 0.0 1.6 0.00 0.00 0.00 76 1011.2
20260506203409 11 70 0.0 3.2 0.00 0.00 0.00 75 1011.1
20260506202409 11 70 0.0 6.4 0.00 0.00 0.00 74 1011.1
20260506201409 11 40 0.0 8.0 0.00 0.00 0.00 74 1011.1
20260506200410 11 70 0.0 9.7 0.00 0.00 0.00 74 1010.9
20260506195409 11 70 0.0 4.8 0.00 0.00 0.00 75 1010.9
20260506194409 11 55 1.6 4.8 0.00 0.00 0.00 77 1010.9
20260506193410 11 105 0.0 0.0 0.00 0.00 0.00 77 1010.8
20260506192409 11 105 0.0 6.4 0.00 0.00 0.00 74 1010.7
20260506191409 12 65 1.6 11.3 0.00 0.00 0.00 74 1010.6
20260506190409 12 85 0.0 8.0 0.00 0.00 0.00 73 1010.5
20260506185409 12 70 0.0 4.8 0.00 0.00 0.00 73 1010.4
20260506184409 12 85 0.0 3.2 0.00 0.00 0.00 72 1010.4
20260506183409 12 85 0.0 4.8 0.00 0.00 0.00 71 1010.3
20260506182409 13 65 0.0 8.0 0.00 0.00 0.00 68 1010.1
20260506181410 14 75 0.0 9.7 0.00 0.00 0.00 64 1010.0
20260506180409 15 65 1.6 8.0 0.00 0.00 0.00 61 1009.8
20260506175409 17 85 0.0 17.7 0.00 0.00 0.00 55 1009.7
20260506174409 18 80 0.0 4.8 0.00 0.00 0.00 53 1009.6
20260506173409 17 60 0.0 11.3 0.00 0.00 0.00 54 1009.4
20260506172409 16 70 4.8 19.3 0.00 0.00 0.00 59 1009.3
20260506171409 15 70 0.0 4.8 0.00 0.00 0.00 64 1009.2
20260506170409 15 55 0.0 17.7 0.00 0.00 0.00 64 1009.0
20260506165409 15 60 0.0 12.9 0.00 0.00 0.00 63 1009.0
20260506164409 15 85 3.2 4.8 0.00 0.00 0.00 64 1008.9
20260506163410 15 70 0.0 8.0 0.00 0.00 0.00 65 1008.8
20260506162409 16 60 0.0 4.8 0.00 0.00 0.00 64 1008.8
20260506161409 16 70 0.0 9.7 0.00 0.00 0.00 63 1008.6
20260506160410 16 55 0.0 16.1 0.00 0.00 0.00 62 1008.6
20260506155409 16 90 1.6 16.1 0.00 0.00 0.00 63 1008.6
20260506154409 17 55 4.8 3.2 0.00 0.00 0.00 62 1008.6
20260506153409 17 55 0.0 3.2 0.00 0.00 0.00 65 1008.5
20260506152409 17 0 0.0 4.8 0.00 0.00 0.00 64 1008.5
20260506151409 17 95 0.0 3.2 0.00 0.00 0.00 62 1008.5
20260506150409 18 70 0.0 4.8 0.00 0.00 0.00 59 1008.4
20260506145409 18 50 0.0 4.8 0.00 0.00 0.00 59 1008.3
20260506144409 19 125 0.0 1.6 0.00 0.00 0.00 58 1008.3
20260506143410 18 270 0.0 3.2 0.00 0.00 0.00 59 1008.3
20260506142409 17 270 0.0 1.6 0.00 0.00 0.00 63 1008.3
20260506141409 17 270 0.0 1.6 0.00 0.00 0.00 63 1008.3
20260506140409 17 270 0.0 4.8 0.00 0.00 0.00 60 1008.3
20260506135409 18 180 0.0 0.0 0.00 0.00 0.00 60 1008.3
20260506134409 18 180 0.0 1.6 0.00 0.00 0.00 60 1008.2
20260506133409 18 175 1.6 3.2 0.00 0.00 0.00 60 1008.2
20260506132409 19 255 0.0 4.8 0.00 0.00 0.00 58 1008.2
20260506131409 19 55 0.0 4.8 0.00 0.00 0.00 60 1008.1
20260506130409 19 110 1.6 4.8 0.00 0.00 0.00 59 1008.1
20260506125409 18 150 0.0 1.6 0.00 0.00 0.00 62 1008.1
20260506124409 17 145 0.0 3.2 0.00 0.00 0.00 66 1008.0
20260506123409 17 60 0.0 1.6 0.00 0.00 0.00 66 1008.0
20260506122409 17 80 0.0 9.7 0.00 0.00 0.00 69 1008.1
20260506121409 15 30 0.0 1.6 0.00 0.00 0.00 75 1008.0
20260506120410 14 60 0.0 0.0 0.00 0.00 0.00 80 1008.0
20260506115409 14 60 0.0 0.0 0.00 0.00 0.00 80 1008.1
20260506114410 15 60 0.0 0.0 0.00 0.00 0.00 78 1008.0
20260506113409 15 60 0.0 1.6 0.00 0.00 0.00 73 1008.0
20260506112409 15 60 0.0 1.6 0.00 0.00 0.00 78 1008.0
20260506111409 14 60 0.0 1.6 0.00 0.00 0.00 80 1008.1
20260506110409 15 60 0.0 0.0 0.00 0.00 0.00 79 1008.1
20260506105409 14 60 0.0 1.6 0.00 0.00 0.00 80 1008.1
20260506104409 14 60 0.0 0.0 0.00 0.00 0.00 78 1008.2
20260506103409 15 60 0.0 1.6 0.00 0.00 0.00 76 1008.1
20260506102410 16 60 0.0 1.6 0.00 0.00 0.00 74 1008.0
20260506101409 16 60 1.6 9.7 0.00 0.00 0.00 72 1008.1
20260506100410 17 100 0.0 4.8 0.00 0.00 0.00 75 1008.0
20260506095409 17 110 0.0 3.2 0.00 0.00 0.00 79 1007.9
20260506094409 15 190 0.0 1.6 0.00 0.00 0.00 82 1007.9
20260506093410 15 190 0.0 1.6 0.00 0.00 0.00 85 1007.9
20260506092409 15 195 0.0 1.6 0.00 0.00 0.00 85 1007.9
20260506091409 15 320 0.0 8.0 0.00 0.00 0.00 87 1007.9
20260506090409 14 280 0.0 0.0 0.00 0.00 0.00 91 1007.8
20260506085409 13 280 0.0 4.8 0.00 0.00 0.00 93 1007.7
20260506084409 13 275 0.0 0.0 0.00 0.00 0.00 96 1007.7
20260506083409 12 280 0.0 0.0 0.00 0.00 0.00 97 1007.7
20260506082409 12 280 0.0 0.0 0.00 0.00 0.00 99 1007.7
20260506081410 12 270 0.0 1.6 0.00 0.00 0.00 99 1007.6
20260506080409 11 160 0.0 0.0 0.00 0.00 0.00 99 1007.6
20260506073409 10 160 0.0 0.0 0.00 0.00 0.00 99 1007.6
20260506072410 10 160 0.0 0.0 0.00 0.00 0.00 99 1007.5
20260506071409 10 160 0.0 1.6 0.00 0.00 0.00 99 1007.5
20260506070409 10 160 0.0 0.0 0.00 0.00 0.00 99 1007.6
20260506062409 10 160 0.0 0.0 0.00 0.00 0.00 99 1007.3
20260506061409 10 160 0.0 0.0 0.00 0.00 0.00 99 1007.3